Regional Weather Roundup
Issued by NWS

Home | Current Version | Previous Version | Graphics & Text | Print | Product List | Glossary On
Versions: 1 2 3 4 5 6 7 8 9 10 11 12 13 14 15 16 17 18 19 20 21 22 23 24 25 26 27 28 29 30 31 32 33 34 35 36 37 38 39 40 41 42 43 44 45 46 47 48 49 50
855
ASUS43 KLMK 251610
RWRKY
KENTUCKY REGIONAL WEATHER ROUNDUP
NATIONAL WEATHER SERVICE LOUISVILLE KY
1100 AM EST SAT FEB 25 2017

NOTE "FAIR" INDICATES FEW OR NO CLOUDS BELOW 12,000 FEET
WITH NO SIGNIFICANT WEATHER AND/OR OBSTRUCTIONS TO VISIBILITY.

KYZ001>023-026-027-061>063-070>075-251700-
WESTERN AND SOUTH CENTRAL KENTUCKY

CITY           SKY/WX    TMP DP  RH WIND       PRES   REMARKS
PADUCAH        PTSUNNY   36  18  48 NW15      30.06S WCI  27
HENDERSON      CLOUDY    36  19  51 W20G26    30.03R WCI  25
OWENSBORO      CLOUDY    33  21  61 W18       30.03R WCI  22
HOPKINSVILLE   CLOUDY    36  20  50 W10       30.03R WCI  29
BOWLING GREEN  CLOUDY    38  21  50 W12G17    30.01R WCI  30
GLASGOW        PTSUNNY   38  22  52 NW15G22   29.98R WCI  29
$$

KYZ024-025-028>034-038-045-046-053-251700-
NORTH CENTRAL KENTUCKY

CITY           SKY/WX    TMP DP  RH WIND       PRES   REMARKS
LOUISVILLE/SDF CLOUDY    34  21  59 W22G30    29.95R WCI  22
LOUISVILLE/LOU CLOUDY    35  20  54 W22G29    29.94R WCI  23
FORT KNOX      FLURRIES  32  22  65 W18G28    29.94R WCI  21
$$

KYZ035>037-039>044-047>052-055>060-089>105-251700-
NORTHEAST KENTUCKY

CITY           SKY/WX    TMP DP  RH WIND       PRES   REMARKS
LEXINGTON      PTSUNNY   36  21  54 W24G31    29.90R WCI  24
COVINGTON      CLOUDY    34  25  69 W20G35    29.83R WCI  23
FRANKFORT      CLOUDY    35  20  54 W13G21    29.90R WCI  26
$$

KYZ054-064>069-076>088-106>120-251700-
SOUTHEAST KENTUCKY

CITY           SKY/WX    TMP DP  RH WIND       PRES   REMARKS
JACKSON        CLOUDY    44  34  67 SW8G21    29.81R
LONDON         PTSUNNY   44  28  53 W18G26    29.86R
SOMERSET       CLOUDY    37  28  70 NW13G21   29.93R WCI  29
MIDDLESBORO    PTSUNNY   51  37  58 NW13G22   29.84R
MONTICELLO     CLOUDY    41  31  67 W17G25    29.93R
$$





USA.gov is the U.S. government's official web portal to all federal, state and local government web resources and services.